Current Version              Previous Version:    01  02  03  04  05  06  07  08  09  10  11  12  13  14  15  16  17  18  19  20  21  22  23  24  25  26  27  28  29  30  
   31  32  33  34  35  36  37  38  39  40  41  42  43  44  45  46  47  48  49  50  51  52  53  54  55  56  57  58  59  60  

[Printable]
515
ASUS44 KFWD 252201
RWRTX
NORTH TEXAS HOURLY WEATHER ROUNDUP
NATIONAL WEATHER SERVICE FORT WORTH TX
500 PM CDT FRI JUL 25 2014

NOTE: "FAIR" INDICATES FEW OR NO CLOUDS BELOW 12,000 FEET WITH NO
SIGNIFICANT WEATHER AND/OR OBSTRUCTIONS TO VISIBILITY.

TXZ118-119-252300-
DALLAS/FORT WORTH METROPLEX

CITY           SKY/WX    TMP DP  RH WIND       PRES   REMARKS
DFW AIRPORT    MOSUNNY   99  64  31 S6        29.91F HX 101
DALLAS LOVE    MOSUNNY  100  66  32 S12G25    29.91F HX 104
FTW MEACHAM    SUNNY    100  64  30 SW9       29.91F HX 102
DAL-EXECUTIVE  SUNNY     99  65  32 VRB3      29.92F HX 102
FTW-ALLIANCE   MOSUNNY   98  63  31 SW8G16    29.91F HX 100
FTW-NAS-JRB    MOSUNNY  102  61  25 S10       29.95F HX 103
FTW-SPINKS     SUNNY     99  63  30 S12       29.94F HX 100
ARLINGTON      MOSUNNY   98  64  32 VRB6      29.92F HX 100
MESQUITE       SUNNY     97  63  32 S8        29.93F HX  98
LANCASTER      SUNNY     98  62  30 S10G16    29.93F HX 100
$$

TXZ091>094-102>105-117-120-121-131>134-252300-
NORTH CENTRAL TEXAS

CITY           SKY/WX    TMP DP  RH WIND       PRES   REMARKS
SHRMAN/DENISON SUNNY     98  62  31 S10       29.94F HX  99
GAINESVILLE    SUNNY     95  67  39 SE10G16   29.95S HX  99
BOWIE          SUNNY     96  64  34 SE7       29.93F HX  97
BRIDGEPORT     SUNNY     98  57  25 S6        29.93F HX  97
DECATUR        SUNNY     96  61  31 SE7       29.93F HX  97
DENTON         SUNNY     97  66  36 S8        29.91F HX 100
MCKINNEY       SUNNY     96  70  42 SE15G21   29.92F HX 102
GREENVILLE     SUNNY     95  68  41 SE10      29.94F HX  99
ROCKWALL       SUNNY     97  70  41 S8G16     29.92F HX 103
TERRELL        SUNNY     97  67  37 SE10G17   29.93F HX 101
WAXAHACHIE     MOSUNNY   98  61  29 S6        29.94F HX  98
CLEBURNE       SUNNY     97  66  36 SW7       29.95F HX 100
GRANBURY       SUNNY    100  63  29 SE9       29.93F HX 101
$$

TXZ083>090-098>101-113>116-127>130-139>142-154-155-252300-
WESTERN NORTH TEXAS

CITY           SKY/WX    TMP DP  RH WIND       PRES   REMARKS
WICHITA FALLS  SUNNY     99  62  29 S12       29.89F HX 100
WF-KICKAPOO    SUNNY    100  54  21 SW12      29.91F HX  98
VERNON         SUNNY    103  54  19 S15       29.90F HX 101
ABILENE        SUNNY     96  61  31 S12       29.97F HX  96
ABILENE-DYESS  SUNNY     96  62  32 SE13G18   29.95F HX  97
BRECKENRIDGE   SUNNY    101  53  20 S9        29.93S HAZE    HX  98
MINERAL WELLS  SUNNY     99  59  26 S9        29.91F HX  99
STEPHENVILLE   SUNNY     96  61  31 S8        29.99S HX  96
COMANCHE       SUNNY     96  61  31 S8        29.97F HX  96
BROWNWOOD      MOSUNNY   95  64  36 SE7G17    29.96F HX  97
COLEMAN        SUNNY     96  59  29 S3        29.97F HX  95
BRADY          MOSUNNY   95  63  34 E7        29.98F HX  96
$$

TXZ143>147-156>162-174-175-252300-
CENTRAL TEXAS

CITY           SKY/WX    TMP DP  RH WIND       PRES   REMARKS
WACO           SUNNY     97  66  36 S8        29.94F HX 100
WACO-TSTC      MOSUNNY   95  64  36 S9        29.94F HX  97
WACO-MCGREGOR  SUNNY     99  66  34 S12       29.94F HX 102
HILLSBORO      MOSUNNY   97  64  33 SW8       29.94F HX  99
CORSICANA      MOSUNNY   95  69  42 S12       29.95F HX 100
MEXIA          MOSUNNY   93  71  49 SE8       29.95F HX 100
TEMPLE         SUNNY     93  68  43 E9G16     29.96S HX  97
KILLEEN        MOSUNNY   93  66  40 S9        29.95F HX  96
KILLEEN-SKYLRK SUNNY     95  66  38 SE5       29.95F HX  98
FORT HOOD      SUNNY     94  67  41 SE5       29.95F HX  97
GATESVILLE     SUNNY     97  64  34 S9        29.97F HX  99
HAMILTON       SUNNY     96  63  33 S9        29.98F HX  97
LAMPASAS       MOSUNNY   96  68  39 S5        29.96F HX 100
$$

TXZ095>097-106>112-122>126-135>138-148>153-164>167-252300-
EAST TEXAS

CITY           SKY/WX    TMP DP  RH WIND       PRES   REMARKS
PARIS          MOSUNNY   91  72  52 S10       29.95F HX  98
CLARKSVILLE    MOSUNNY   92  70  47 S6        29.95F HX  98
MOUNT PLEASANT MOSUNNY   92  70  48 SE7       29.96F HX  98
GILMER         SUNNY     91  73  55 S6        29.98S HX 100
MINEOLA        MOSUNNY   91  72  52 S7        29.96F HX  98
TYLER          PTSUNNY   93  72  50 SW10      29.97F HX 101
LONGVIEW       SUNNY     92  70  48 SW6       29.96F HX  97
MARSHALL       MOSUNNY   93  77  58 S3        29.99S HX 106
ATHENS         MOSUNNY   91  70  49 S7        29.95F HX  97
JACKSONVILLE   SUNNY     91  70  48 S6        30.01S HX  96
HENDERSON      PTSUNNY   91  71  51 SW6       29.98F HX  97
NACOGDOCHES    SUNNY     91  72  52 CALM      29.97F HX  98
LUFKIN         PTSUNNY   94  71  47 SE3       29.97F HX 101
$$

SUPPLEMENTAL OBSERVATIONS (CENTRAL)

CITY           SKY/WX    TMP DP  RH WIND       PRES   REMARKS
$$

SUPPLEMENTAL OBSERVATIONS (WEST)

CITY           SKY/WX    TMP DP  RH WIND       PRES   REMARKS
$$

SUPPLEMENTAL OBSERVATIONS (EAST)

CITY           SKY/WX    TMP DP  RH WIND       PRES   REMARKS
$$

SUPPLEMENTAL OBSERVATIONS ARE A COLLECTION OF AUTOMATED INSTRUMENTS
THAT ARE MAINTAINED BY A VARIETY OF FEDERAL AND STATE AGENCIES.
CERTAIN ELEMENTS...SUCH AS HUMIDITY VALUES AND SUSTAINED WIND
SPEEDS...MAY BE APPROXIMATED.




495
ASUS44 KLUB 252201
RWRTX
WEST TEXAS WEATHER ROUNDUP
NATIONAL WEATHER SERVICE LUBBOCK TX
500 PM CDT FRI JUL 25 2014

NOTE: "FAIR" INDICATES FEW OR NO CLOUDS BELOW 12,000 FEET WITH NO
SIGNIFICANT WEATHER AND/OR OBSTRUCTIONS TO VISIBILITY.

TXZ004-006>008-010-012-014-016-OKZ002-252300-
TEXAS PANHANDLE/OKLAHOMA PANHANDLE

CITY           SKY/WX    TMP DP  RH WIND       PRES   REMARKS
AMARILLO       SUNNY     99  53  21 S16       29.99F HX  96
BORGER         SUNNY    103  53  19 S13G24    29.92F HX 101
CANADIAN       SUNNY    103  58  22 S22G32    29.88S HX 103
DALHART        SUNNY    104  42  12 SW17G25   29.96F HX  99
DUMAS          SUNNY    102  48  16 S13G20    29.95F HX  98
GUYMON         MOSUNNY  106  51  16 S13G25    29.86F HX 103
HEREFORD       SUNNY    100  52  20 S13G20    30.01F HX  97
$$

TXZ026-029-035-045-048-252300-
SOUTHERN PANHANDLE/SOUTH PLAINS/ROLLING PLAINS

CITY           SKY/WX    TMP DP  RH WIND       PRES   REMARKS
CHILDRESS      SUNNY    102  52  18 S16G25    29.92F HX  99
SEMINOLE       SUNNY     99  43  14 S3        30.03F
LUBBOCK        MOSUNNY   98  49  18 S9G22     30.01F HX  95
$$

TXZ052-054-060>062-072-078-127-140-154-169-252300-
PERMIAN BASIN/CONCHO VALLEY/BIG COUNTRY/EDWARDS PLATEAU

CITY           SKY/WX    TMP DP  RH WIND       PRES   REMARKS
ABILENE        SUNNY     96  61  31 S12       29.97F HX  96
BIG SPRING     SUNNY    100  47  17 S8G21     30.00F HX  96
BRADY          MOSUNNY   95  63  34 E7        29.98F HX  96
BROWNWOOD      MOSUNNY   95  64  36 SE7G17    29.96F HX  97
JUNCTION       MOSUNNY   94  62  34 SE8       29.96F
MIDLAND        SUNNY     98  53  22 S10       30.00F HX  96
ODESSA         SUNNY     96  49  20 VRB3      30.01F
SAN ANGELO     PTSUNNY   98  58  26 S9        29.96F HX  97
WINK           SUNNY    100  46  16 SE13      29.96F HX  96
$$

TXZ055-058-074-075-080-082-252300-
FAR WEST/SOUTHWEST MOUNTAINS/TRANS PECOS

CITY           SKY/WX    TMP DP  RH WIND       PRES   REMARKS
ALPINE         SUNNY     91  47  21 CALM      30.15F
DRYDEN           N/A    101  59  24 E14       29.95F HX 101
EL PASO        MOSUNNY   98  44  15 E7        30.02F
FORT STOCKTON  SUNNY     97  50  20 SE13      30.00F
GUADALUPE PASS SUNNY     91  47  21 NE15      30.18F
MARFA          SUNNY     91  45  19 SE12      30.15F
$$

TXZ014-016-019-021>030-083-252300
TEXAS TECH WEST TEXAS MESONET/TEXAS PANHANDLE/NORTHERN SOUTH PLAINS

CITY           SKY/WX    TMP DP  RH WIND       PRES   REMARKS
ABERNATHY 5ENE   N/A     99  48  17 S12       30.03F HX  95
AMARILLO 9NNE    N/A     98  59  27 S12       29.95F HX  97
AMARILLO 7SSE    N/A     99  55  23 S13       30.00F HX  97
AMHERST 1NE      N/A     98  50  19 S14       30.02F
BOOTLEG 11WNW    N/A     99  50  18 S14       30.06  HX  96
CANADIAN 6E      N/A    101  61  26 S18       29.87F HX 101
CAPROCK CYN SP   N/A     98  52  21 S15       29.97F HX  95
CHILDRESS 2NNE   N/A    101  53  20 S14       29.92S HX  98
CLARENDON 2WSW   N/A     97  56  25 S17       29.96F HX  96
CLAUDE 12SW      N/A     98  59  26 S12       29.99F HX  98
DIMMITT 2NE      N/A     97  55  24 S15       30.03F
FLOYDADA 2NNE    N/A     94  48  20 S13       30.02S
FRIONA 2NE       N/A    100  45  15 S16       30.03F HX  96
GOODLETT 3W      N/A    102  54  20 S13       29.89F HX 100
HART 3N          N/A     94  57  28 S10       30.03F
HEREFORD 2NW     N/A     97  48  18 S13       30.01F
MCLEAN 1E        N/A     97  57  26 S18       29.94F HX  96
MEMPHIS 1NE      N/A    101  53  19 S10       29.92S HX  99
MULESHOE 2SSW    N/A     98  47  17 S10       30.02F
OLTON 6S         N/A     95  53  24 S13       30.02F
PALO DURO SP     N/A     98  58  26 S13       30.00F HX  98
PAMPA 2E         N/A     97  56  25 S16       29.96F HX  95
PLAINVIEW 1S     N/A     97  54  23 S10       30.01F
SILVERTON 7ESE   N/A     95  53  23 S16       30.01S
TULIA 2ENE       N/A     96  56  25 S13       30.01F HX  95
TURKEY 2WSW      N/A     99  53  21 S16       29.94F HX  96
UMBARGER 3NNE    N/A     97  56  25 SW15      30.01F HX  96
$$

TXZ033>036-039>041-045>048-252300
TEXAS TECH WEST TEXAS MESONET/SOUTH PLAINS

CITY           SKY/WX    TMP DP  RH WIND       PRES   REMARKS
AIKEN 3WSW       N/A     94  61  33 S8        30.03F
ANTON 6SSW       N/A     98  51  20 S8        30.02F HX  95
BROWNFIELD 2S    N/A     97  43  15 E9        30.02F
DENVR CTY 7WNW   N/A     97  42  15 SE13      30.04F
GAIL 2ESE        N/A     99  48  17 SE12      29.98F HX  96
LAMESA 2SE       N/A     98  45  16 SE10      30.02F
LEVELLAND 4S     N/A     97  47  17 SE10G20   30.03F
LUBBOCK 3WNW     N/A    100  47  16 SE7       30.01F HX  96
MORTON 1ENE      N/A     99  48  17 S8        30.03F HX  95
ODONNELL 1N      N/A     98  43  15 S7        30.02F
PLAINS 3N        N/A     98  48  18 S7        30.04F
RALLS 1SE        N/A     96  51  21 S12       30.02F
REESE CENTER     N/A     98  43  15 S8        30.02F
SEAGRAVES 1SW    N/A     98  43  15 S9        30.02F
SEMINOLE 2NNE    N/A     99  40  13 SE9       30.02F
SLATON 2NE       N/A     97  42  15 S13       30.01F
SNYDER 3E        N/A    101  47  15 SE12      29.97F HX  98
SUNDOWN 8SW      N/A     98  48  18 S9        30.04S
TAHOKA 3NNE      N/A     99  42  14 S12       30.01F HX  95
WOLFFORTH 6SSW   N/A     98  46  17 S7        30.02F
$$

TXZ031-032-036>038-042>044-252300-
TEXAS TECH WEST TEXAS MESONET/ROLLING PLAINS

CITY           SKY/WX    TMP DP  RH WIND       PRES   REMARKS
ASPERMONT 3NE    N/A    103  53  18 S8        29.93F HX 101
FLUVANNA 3WNW    N/A     98  48  18 SE14      29.99F HX  95
GRAHAM 5SSW      N/A     98  42  14 S14       30.00F
GUTHRIE 10WSW    N/A    100  53  20 S12       29.93F HX  98
HASKELL 1NW      N/A     98  52  21 S10       29.92F HX  95
JAYTON 1SSE      N/A    101  48  16 S10       29.94F HX  97
KNOX CITY 3NW    N/A    103  50  17 S13       29.91F HX 100
LK A HENRY 1NW   N/A    100  49  17 S3        29.96F HX  97
NORTHFIELD 1S    N/A    101  48  16 S14       29.92F HX  98
ODELL 4ENE       N/A    100  55  22 S17       29.90F HX  99
PADUCAH 10SW     N/A    100  54  21 S13       29.93F HX  98
POST 1NE         N/A    100  44  14 S6        29.98F HX  96
RRING SPRGS 3N   N/A     99  49  18 SW10      29.97F HX  95
SEYMOUR 3NW      N/A    103  48  15 S12       29.90F HX 100
SPUR 1W          N/A    100  44  14 S8        29.95F HX  96
WEINERT 2NNE     N/A    102  57  22 S13       29.92F HX 101
WHITE RVR 6NE    N/A     99  47  16 S8        29.98F HX  95
$$

TXZ052-054-060>062-072-078-127-140-154-169-252300-
TEXAS TECH WEST TEXAS MESONET/PERMIAN BASIN/
CONCHO VALLEY/BIG COUNTRY/EDWARDS PLATEAU

CITY           SKY/WX    TMP DP  RH WIND       PRES   REMARKS
COYANOSA 2N      N/A    101  48  17 E9        29.97F HX  97
JUNCTION 1SSW    N/A     96  64  34 SW10      29.97F HX  98
MERTZON 3NNE     N/A     95  60  31 SE3       29.99F HX  95
SAN ANGELO 7NW   N/A     98  55  23 E5        29.97F HX  95
STRLNG CT 4WSW   N/A     97  56  25 S6        29.99F HX  96
ST LAWRNCE 5SW   N/A     95  51  22 SE8       30.01F
SWEETWATR 11SW   N/A     98  55  23 SW6       30.00F HX  95
WALL 1E          N/A     97  57  26 SE7       29.97F HX  95
$$

TXZ055-058-074-075-080-082-252300-
TEXAS TECH WEST TEXAS MESONET/FAR WEST/SOUTHWEST MOUNTAINS/TRANS PECOS

CITY           SKY/WX    TMP DP  RH WIND       PRES   REMARKS
GUADLPE MTN NP   N/A     89  48  24 NE8       30.20F
$$